Regional Weather Roundup
Issued by NWS Newport/Morehead, NC

Current Version | Previous Version | Graphics & Text | Print | Product List | Glossary On
Versions: 1 2 3 4 5 6 7 8 9 10 11 12 13 14 15 16 17 18 19 20 21 22 23 24 25 26 27 28 29 30 31 32 33 34 35 36 37 38 39 40 41 42 43 44 45 46 47 48 49 50
000
ASUS42 KMHX 060624
RWRMHX
WEATHER ROUNDUP FOR EASTERN NORTH CAROLINA
NATIONAL WEATHER SERVICE NEWPORT/MOREHEAD CITY NC
200 AM EDT WED MAY 06 2015

NOTE: "FAIR" INDICATES FEW OR NO CLOUDS BELOW 12,000 FEET
WITH NO SIGNIFICANT WEATHER AND/OR OBSTRUCTIONS TO VISIBILITY

NCZ015>017-031-032-045>047-102-103-060700-
NORTH COAST

CITY           SKY/WX    TMP DP  RH WIND       PRES   REMARKS
EDENTON        CLEAR     57  54  90 CALM      30.27F
ELIZABETH CITY CLEAR     60  55  83 W3        30.28F
KITTY HAWK     PTCLDY    64  59  85 CALM      30.27F
MANTEO         PTCLDY    58  57  98 CALM      30.29F

$$

NCZ045>047-081-094-103-104-060700-
CENTRAL COAST

CITY           SKY/WX    TMP DP  RH WIND       PRES   REMARKS
FRISCO         MOCLDY    63  58  83 S5        30.28F
SWANQUARTER      N/A     57 N/A N/A E1        30.24F

$$

NCZ095-097-098-100-101-060700-
SOUTHERN COAST

CITY           SKY/WX    TMP DP  RH WIND       PRES   REMARKS
BEAUFORT       MOCLDY    59  57  93 E5        30.27F
CEDAR ISLAND     N/A     59 N/A N/A CALM      30.30F
JACKSONVILLE   MOCLDY    56  54  93 CALM      30.27F
PINEY ISLAND   MOCLDY   N/A N/A N/A CALM      30.27F
WILMINGTON     MOCLDY    58  55  90 CALM      30.26F


$$

NCZ011>013-027>030-043-044-078>080-089-090>093-098-060700-
COASTAL PLAIN

CITY           SKY/WX    TMP DP  RH WIND       PRES   REMARKS
AHOSKIE        CLEAR     55  51  87 CALM      30.27F
CLINTON        PTCLDY    57  56  96 CALM      30.28F
ELIZABETHTOWN  MOCLDY    57  55  91 CALM      30.25F
GOLDSBORO      PTCLDY    58  53  83 CALM      30.26S
GREENVILLE     PTCLDY    55  54  94 CALM      30.29S
HAVELOCK       MOCLDY    56  52  86 CALM      30.28F
KENANSVILLE    PTCLDY    52  51  94 CALM      30.28F
KINSTON        PTCLDY    55  53  92 CALM      30.28F
NEW BERN       PTCLDY    54  50  86 CALM      30.28F
RICHLANDS      MOCLDY    52  46  82 CALM      30.26F
ROCKY MOUNT    CLEAR     57  53  86 CALM      30.28F
WASHINGTON     PTCLDY    56  53  87 CALM      30.28F
WHITEVILLE     MOCLDY    56  54  94 CALM      30.25F

$$

AMZ130-135-150-152-154-156-158-170-250-252-270-ANZ085-086-088-633-658-670-060700-
MARINE OBSERVATIONS

STATION/POSITION TIME  TEMP    WIND        PRES    WAVE   SWELL
                       AIR SEA DIR/SP/G            HT/PER HT/PER
                 (UTC) (F)     (DEG/KT/KT) (MB)    (FT/S) (FT/S)
CHESAPEAKE LIGHT 0600   64     210/ 18/ 19 1024.7
64 E VA BEACH    0550   60 57  210/  8/ 10 1024.9    2/11   2/11
DUCK             0500   66 51  190/  7/  8 1024.9
2 E DUCK         0511      53                N/A     1/11
OREGON INLET     0500   67 72  180/  5/  7 1026.1
13E OREGON INLT  0600      59                N/A     2/11   2/11
HATTERAS CG      0500   68 68  160/  3/  5 1025.6
DIAMOND BUOY     0550   70 75  170/  6/  8 1025.7    3/11   3/11
CAPE LOOKOUT     0600   68      80/  5/  5 1024.7
BEAUFORT LAB     0500   65 68   50/  4/  5 1024.8
27 SE WRIGHTSVLE 0600   68 71   90/  4/  6   N/A
5 SE WRIGHTSVLE  0508   69 69   40/  4/  6 1025.0
225 S CAPE HAT   0550   70 71  110/ 16/ 19 1023.2    6/ 7   2/11
41 SE CHARLESTON 0550   74 73   70/ 14/ 16 1022.2    5/ 7   3/ 7

$$



USA.gov is the U.S. government's official web portal to all federal, state and local government web resources and services.